�������l�o���
Date,Time,MP-1(��Sv/h),MP-2(��Sv/h),MP-3(��Sv/h),MP-4(��Sv/h),MP-5(��Sv/h),MP-6(��Sv/h),MP-7(��Sv/h),MP-8(��Sv/h),����,����(m/s),���J
2019/05/22,00:00,0.726,1.038,0.718,1.317,0.937,0.428,0.742,0.705,�k�k��,3.9,��
2019/05/22,00:10,0.724,1.035,0.717,1.316,0.936,0.426,0.741,0.706,�k�k��,4.2,��
2019/05/22,00:20,0.727,1.036,0.717,1.316,0.938,0.427,0.741,0.706,�k�k��,4.5,��
2019/05/22,00:30,0.726,1.035,0.717,1.315,0.937,0.429,0.742,0.704,�k�k��,4.2,��
2019/05/22,00:40,0.727,1.036,0.720,1.317,0.936,0.427,0.742,0.706,�k�k��,5.1,��
2019/05/22,00:50,0.725,1.038,0.717,1.317,0.936,0.427,0.743,0.705,�k�k��,4.9,��
2019/05/22,01:00,0.726,1.037,0.719,1.317,0.937,0.426,0.744,0.705,�k�k��,5.2,��
2019/05/22,01:10,0.726,1.038,0.718,1.313,0.936,0.427,0.743,0.708,�k�k��,4.7,��
2019/05/22,01:20,0.727,1.037,0.717,1.316,0.938,0.427,0.745,0.703,�k�k��,5.5,��
2019/05/22,01:30,0.726,1.037,0.717,1.315,0.938,0.427,0.744,0.705,�k�k��,5.4,��
2019/05/22,01:40,0.726,1.038,0.719,1.317,0.941,0.426,0.744,0.706,�k��,4.1,��
2019/05/22,01:50,0.726,1.038,0.720,1.315,0.940,0.426,0.743,0.706,�k�k��,4.2,��
2019/05/22,02:00,0.726,1.037,0.720,1.317,0.939,0.427,0.744,0.706,�k�k��,4.6,��
2019/05/22,02:10,0.727,1.036,0.718,1.317,0.937,0.427,0.744,0.707,�k�k��,5.0,��
2019/05/22,02:20,0.726,1.037,0.719,1.319,0.939,0.427,0.744,0.707,�k�k��,6.2,��
2019/05/22,02:30,0.727,1.037,0.719,1.319,0.940,0.428,0.744,0.705,�k�k��,6.8,��
2019/05/22,02:40,0.726,1.038,0.719,1.318,0.938,0.427,0.746,0.706,�k�k��,6.4,��
2019/05/22,02:50,0.727,1.037,0.719,1.317,0.939,0.427,0.744,0.705,�k,6.4,��
2019/05/22,03:00,0.726,1.038,0.718,1.318,0.939,0.427,0.745,0.706,�k�k��,6.6,��
2019/05/22,03:10,0.729,1.038,0.719,1.317,0.940,0.426,0.744,0.706,�k�k��,6.4,��
2019/05/22,03:20,0.725,1.037,0.718,1.317,0.940,0.425,0.744,0.705,�k�k��,6.5,��
2019/05/22,03:30,0.727,1.040,0.721,1.319,0.939,0.427,0.744,0.706,�k�k��,5.7,��
2019/05/22,03:40,0.726,1.037,0.719,1.320,0.942,0.426,0.743,0.707,�k�k��,6.3,��
2019/05/22,03:50,0.726,1.039,0.721,1.319,0.941,0.427,0.744,0.708,�k�k��,6.5,��
2019/05/22,04:00,0.727,1.036,0.719,1.317,0.942,0.425,0.744,0.704,�k�k��,5.3,��
2019/05/22,04:10,0.725,1.037,0.721,1.319,0.941,0.426,0.743,0.707,�k�k��,6.2,��
2019/05/22,04:20,0.726,1.039,0.721,1.320,0.940,0.426,0.744,0.705,�k�k��,5.1,��
2019/05/22,04:30,0.727,1.037,0.721,1.317,0.940,0.427,0.746,0.707,�k�k��,5.0,��
2019/05/22,04:40,0.727,1.039,0.720,1.318,0.941,0.426,0.745,0.707,�k�k��,5.2,��
2019/05/22,04:50,0.725,1.042,0.720,1.319,0.943,0.426,0.744,0.707,�k,5.0,��
2019/05/22,05:00,0.725,1.038,0.719,1.318,0.939,0.426,0.745,0.706,�k,5.8,��
2019/05/22,05:10,0.725,1.039,0.719,1.318,0.940,0.426,0.745,0.707,�k�k��,5.2,��
2019/05/22,05:20,0.727,1.040,0.718,1.318,0.940,0.426,0.745,0.706,�k,5.3,��
2019/05/22,05:30,0.727,1.039,0.721,1.321,0.941,0.426,0.746,0.707,�k�k��,5.7,��
2019/05/22,05:40,0.726,1.038,0.720,1.318,0.941,0.427,0.746,0.707,�k,5.8,��
2019/05/22,05:50,0.726,1.040,0.720,1.320,0.941,0.427,0.746,0.708,�k�k��,6.5,��
2019/05/22,06:00,0.726,1.039,0.720,1.322,0.942,0.427,0.745,0.708,�k�k��,6.7,��
2019/05/22,06:10,0.726,1.041,0.720,1.320,0.944,0.427,0.745,0.707,�k�k��,6.3,��
2019/05/22,06:20,0.730,1.040,0.719,1.319,0.944,0.427,0.747,0.706,�k�k��,5.9,��
2019/05/22,06:30,0.728,1.043,0.721,1.322,0.946,0.427,0.745,0.708,�k�k��,5.8,��
2019/05/22,06:40,0.730,1.040,0.721,1.320,0.945,0.428,0.747,0.706,�k,6.1,��
2019/05/22,06:50,0.730,1.041,0.722,1.319,0.945,0.428,0.746,0.708,�k�k��,6.0,��
2019/05/22,07:00,0.729,1.041,0.722,1.322,0.943,0.428,0.749,0.708,�k�k��,5.3,��
2019/05/22,07:10,0.730,1.041,0.721,1.324,0.944,0.427,0.746,0.711,�k,5.2,��
2019/05/22,07:20,0.728,1.039,0.722,1.324,0.947,0.427,0.746,0.708,�k,4.1,��
2019/05/22,07:30,0.729,1.038,0.722,1.325,0.946,0.426,0.746,0.708,�k,4.2,��
2019/05/22,07:40,0.732,1.041,0.723,1.322,0.944,0.425,0.746,0.711,�k�k��,3.7,��
2019/05/22,07:50,0.731,1.042,0.723,1.323,0.946,0.425,0.746,0.707,�k,3.1,��
2019/05/22,08:00,0.730,1.043,0.722,1.323,0.945,0.427,0.745,0.708,�k�k��,5.0,��
2019/05/22,08:10,0.730,1.043,0.724,1.326,0.948,0.426,0.747,0.708,�k,4.2,��
2019/05/22,08:20,0.731,1.038,0.726,1.325,0.948,0.424,0.745,0.706,�k,4.2,��
2019/05/22,08:30,0.729,1.044,0.725,1.327,0.947,0.427,0.746,0.706,�k�k��,3.7,��
2019/05/22,08:40,0.732,1.044,0.726,1.324,0.950,0.426,0.746,0.708,�k,5.0,��
2019/05/22,08:50,0.732,1.043,0.724,1.327,0.950,0.425,0.748,0.708,�k,4.7,��
2019/05/22,09:00,0.736,1.043,0.725,1.326,0.949,0.430,0.746,0.707,�k,4.4,��
2019/05/22,09:10,0.731,1.044,0.724,1.326,0.950,0.427,0.746,0.709,�k,4.4,��
2019/05/22,09:20,0.730,1.043,0.724,1.327,0.949,0.427,0.748,0.708,�k,4.8,��
2019/05/22,09:30,0.732,1.045,0.724,1.327,0.950,0.427,0.748,0.708,�k�k��,5.6,��
2019/05/22,09:40,0.729,1.044,0.725,1.328,0.951,0.426,0.748,0.708,�k�k��,6.3,��
2019/05/22,09:50,0.729,1.047,0.725,1.328,0.950,0.427,0.748,0.708,�k,4.6,��
2019/05/22,10:00,0.730,1.047,0.725,1.327,0.952,0.427,0.749,0.708,�k�k��,3.4,��
2019/05/22,10:10,0.734,1.046,0.725,1.328,0.954,0.427,0.749,0.709,�k�k��,5.8,��
2019/05/22,10:20,0.732,1.048,0.726,1.330,0.955,0.428,0.748,0.709,�k�k��,6.1,��
2019/05/22,10:30,0.733,1.050,0.726,1.332,0.955,0.426,0.748,0.709,�k�k��,5.8,��
2019/05/22,10:40,0.734,1.048,0.726,1.329,0.954,0.427,0.748,0.710,�k�k��,6.4,��
2019/05/22,10:50,0.732,1.053,0.728,1.329,0.955,0.427,0.748,0.707,�k��,7.1,��
2019/05/22,11:00,0.734,1.052,0.727,1.332,0.958,0.426,0.747,0.710,�k��,5.8,��
2019/05/22,11:10,0.734,1.053,0.724,1.332,0.959,0.428,0.748,0.709,�k��,4.9,��
2019/05/22,11:20,0.734,1.054,0.727,1.329,0.956,0.428,0.748,0.709,���k��,4.1,��
2019/05/22,11:30,0.735,1.055,0.728,1.332,0.958,0.427,0.748,0.708,�k��,3.6,��
2019/05/22,11:40,0.732,1.052,0.728,1.332,0.958,0.427,0.747,0.709,���k��,3.5,��
2019/05/22,11:50,0.733,1.055,0.729,1.331,0.959,0.427,0.748,0.711,�k��,3.3,��
2019/05/22,12:00,0.730,1.057,0.726,1.329,0.960,0.429,0.750,0.712,�k��,2.6,��
2019/05/22,12:10,0.732,1.057,0.729,1.328,0.960,0.428,0.748,0.711,���k��,2.5,��
2019/05/22,12:20,0.735,1.056,0.728,1.330,0.961,0.430,0.747,0.711,���k��,2.8,��
2019/05/22,12:30,0.736,1.058,0.728,1.331,0.961,0.430,0.749,0.710,��,2.3,��
2019/05/22,12:40,0.736,1.057,0.730,1.330,0.963,0.429,0.749,0.712,��,2.3,��
2019/05/22,12:50,0.737,1.057,0.729,1.329,0.962,0.431,0.748,0.710,��,2.6,��
2019/05/22,13:00,0.739,1.059,0.731,1.333,0.965,0.429,0.748,0.710,���쓌,2.2,��
2019/05/22,13:10,0.738,1.062,0.728,1.331,0.963,0.430,0.748,0.710,���쓌,2.0,��
2019/05/22,13:20,0.739,1.060,0.729,1.329,0.965,0.430,0.751,0.713,���쓌,2.0,��
2019/05/22,13:30,0.738,1.059,0.730,1.331,0.966,0.430,0.750,0.711,�쓌,2.6,��
2019/05/22,13:40,0.738,1.060,0.730,1.334,0.966,0.429,0.749,0.712,���쓌,2.8,��
2019/05/22,13:50,0.738,1.057,0.731,1.333,0.966,0.432,0.749,0.711,���쓌,2.3,��
2019/05/22,14:00,0.739,1.059,0.729,1.332,0.966,0.431,0.750,0.711,���쓌,3.1,��
2019/05/22,14:10,0.740,1.061,0.731,1.333,0.966,0.431,0.752,0.711,���쓌,2.0,��
2019/05/22,14:20,0.742,1.062,0.733,1.333,0.967,0.431,0.753,0.710,���쓌,1.7,��
2019/05/22,14:30,0.739,1.063,0.730,1.337,0.968,0.431,0.751,0.711,���쓌,1.4,��
2019/05/22,14:40,0.741,1.065,0.732,1.335,0.968,0.430,0.750,0.712,�쓌,2.9,��
2019/05/22,14:50,0.741,1.064,0.731,1.336,0.967,0.431,0.751,0.712,�쓌,2.6,��
2019/05/22,15:00,0.739,1.067,0.732,1.337,0.969,0.430,0.751,0.712,�쓌,3.2,��
2019/05/22,15:10,0.741,1.067,0.732,1.334,0.968,0.431,0.750,0.712,��쓌,3.8,��
2019/05/22,15:20,0.740,1.067,0.731,1.336,0.969,0.431,0.751,0.711,��쓌,3.6,��
2019/05/22,15:30,0.739,1.068,0.733,1.337,0.968,0.430,0.751,0.712,��쓌,3.7,��
2019/05/22,15:40,0.739,1.069,0.732,1.337,0.968,0.429,0.750,0.713,��,2.3,��
2019/05/22,15:50,0.742,1.069,0.732,1.339,0.969,0.431,0.750,0.713,��,2.5,��
2019/05/22,16:00,0.741,1.071,0.732,1.335,0.971,0.432,0.752,0.712,��,2.0,��
2019/05/22,16:10,0.740,1.067,0.735,1.334,0.970,0.432,0.749,0.711,��,2.2,��
2019/05/22,16:20,0.740,1.070,0.735,1.336,0.969,0.432,0.750,0.710,��쓌,2.3,��
2019/05/22,16:30,0.741,1.068,0.734,1.336,0.969,0.431,0.751,0.713,��쓌,2.6,��
2019/05/22,16:40,0.740,1.070,0.732,1.337,0.970,0.431,0.750,0.711,��쓌,2.8,��
2019/05/22,16:50,0.741,1.071,0.733,1.339,0.969,0.431,0.751,0.712,��,2.2,��
2019/05/22,17:00,0.741,1.074,0.734,1.339,0.970,0.431,0.750,0.712,��,2.2,��
2019/05/22,17:10,0.741,1.074,0.734,1.338,0.969,0.432,0.750,0.713,��,2.3,��
2019/05/22,17:20,0.741,1.072,0.733,1.339,0.971,0.433,0.752,0.713,��쐼,1.5,��
2019/05/22,17:30,0.741,1.076,0.735,1.339,0.970,0.433,0.752,0.715,��,1.5,��
2019/05/22,17:40,0.740,1.072,0.735,1.344,0.970,0.433,0.752,0.713,��,1.2,��
2019/05/22,17:50,0.740,1.075,0.736,1.339,0.971,0.433,0.752,0.714,��쐼,1.2,��
2019/05/22,18:00,0.740,1.075,0.737,1.339,0.974,0.434,0.751,0.715,��,1.2,��
2019/05/22,18:10,0.742,1.075,0.735,1.343,0.972,0.433,0.750,0.712,��,1.7,��
2019/05/22,18:20,0.741,1.077,0.734,1.344,0.974,0.431,0.749,0.714,��쐼,1.2,��
2019/05/22,18:30,0.744,1.073,0.733,1.343,0.974,0.434,0.751,0.714,��쐼,1.1,��
2019/05/22,18:40,0.745,1.074,0.736,1.342,0.974,0.433,0.751,0.714,��쐼,1.2,��
2019/05/22,18:50,0.743,1.075,0.736,1.341,0.975,0.435,0.751,0.715,�쐼,0.8,��
2019/05/22,19:00,0.744,1.076,0.735,1.342,0.974,0.434,0.750,0.713,�쐼,1.4,��
2019/05/22,19:10,0.742,1.074,0.737,1.344,0.974,0.435,0.751,0.715,��쐼,2.5,��
2019/05/22,19:20,0.745,1.073,0.736,1.343,0.971,0.435,0.751,0.714,��쐼,2.3,��
2019/05/22,19:30,0.743,1.076,0.735,1.344,0.975,0.434,0.752,0.714,�쐼,2.6,��
2019/05/22,19:40,0.742,1.074,0.736,1.343,0.974,0.435,0.752,0.714,��쐼,2.2,��
2019/05/22,19:50,0.742,1.074,0.735,1.345,0.973,0.433,0.752,0.714,��쐼,2.3,��
2019/05/22,20:00,0.743,1.075,0.735,1.347,0.972,0.434,0.753,0.713,�쐼,2.6,��
2019/05/22,20:10,0.744,1.072,0.736,1.343,0.974,0.435,0.752,0.713,�쐼,2.6,��
2019/05/22,20:20,0.743,1.073,0.735,1.347,0.973,0.434,0.752,0.713,�쐼,2.6,��
2019/05/22,20:30,0.744,1.076,0.734,1.343,0.973,0.433,0.751,0.714,�쐼,2.3,��
2019/05/22,20:40,0.741,1.073,0.736,1.347,0.974,0.433,0.752,0.714,��쐼,2.3,��
2019/05/22,20:50,0.744,1.073,0.736,1.344,0.973,0.433,0.754,0.714,��쐼,2.5,��
2019/05/22,21:00,0.744,1.072,0.735,1.342,0.975,0.435,0.751,0.714,��쐼,2.5,��
2019/05/22,21:10,0.743,1.073,0.734,1.344,0.972,0.432,0.753,0.713,��,2.9,��
2019/05/22,21:20,0.743,1.073,0.736,1.342,0.975,0.434,0.752,0.713,��,3.0,��
2019/05/22,21:30,0.744,1.072,0.737,1.343,0.973,0.435,0.752,0.713,��,2.6,��
2019/05/22,21:40,0.742,1.072,0.735,1.344,0.976,0.432,0.751,0.715,��쐼,2.3,��
2019/05/22,21:50,0.742,1.071,0.736,1.344,0.973,0.433,0.751,0.714,��,2.8,��
2019/05/22,22:00,0.745,1.072,0.735,1.346,0.972,0.433,0.751,0.712,��쐼,3.0,��
2019/05/22,22:10,0.742,1.070,0.736,1.344,0.972,0.433,0.751,0.715,��쐼,3.0,��
2019/05/22,22:20,0.744,1.073,0.736,1.344,0.972,0.433,0.751,0.715,��,2.6,��
2019/05/22,22:30,0.744,1.071,0.736,1.343,0.973,0.433,0.752,0.713,��,2.5,��
2019/05/22,22:40,0.742,1.072,0.737,1.345,0.972,0.434,0.753,0.713,��쐼,2.0,��
2019/05/22,22:50,0.743,1.074,0.736,1.343,0.974,0.432,0.753,0.713,��,2.2,��
2019/05/22,23:00,0.741,1.072,0.738,1.345,0.971,0.433,0.753,0.715,��,1.7,��
2019/05/22,23:10,0.743,1.071,0.737,1.343,0.973,0.433,0.752,0.713,��쐼,1.7,��
2019/05/22,23:20,0.741,1.071,0.735,1.343,0.972,0.431,0.752,0.714,��쐼,1.7,��
2019/05/22,23:30,0.742,1.070,0.736,1.346,0.972,0.432,0.753,0.713,��,2.0,��
2019/05/22,23:40,0.743,1.070,0.737,1.346,0.973,0.433,0.751,0.714,�쐼,1.7,��
2019/05/22,23:50,0.744,1.072,0.735,1.344,0.973,0.433,0.754,0.714,�쐼,1.7,��
